Location: Hormuz
(27.0871°N, 56.4580°E)
Time: 12:07:51
(UTC+04:30)

ISS - Pass Details

Date: 27 June 2021
Orbit: 419 x 421 km, 51.6° (Epoch: 04 August)

Event Time Altitude Azimuth Distance (km) Brightness Sun altitude
Exits shadow 03:38:07 35° 40° (NE) 695 -2.1 -24.9°
Drops below altitude 10° 03:40:11 10° 41° (NE) 1,495 0.1 -24.5°
Sets 03:42:17 0° 42° (NE) 2,360 1.5 -24.2°
